QPF
0.00 0.00 0.00 0.00 0.00 0.00 0.00 0.00 0.00 0.00 0.00 0.00 0.00 0.00 0.00 0.00 0.00 0.00 0.00 0.00 0.00 0.00 0.00 0.00 0.00 0.00 0.00 0.00 0.00 0.00 0.00 0.00 0.00 0.00 0.00 0.00 0.00 0.00 0.00 0.00 0.00 0.00 0.00 0.00 0.00 0.00 0.00 0.00 0.00 0.00 0.00 0.00 0.00 0.00
0.00 0.00 0.00 0.00 0.00 0.00 0.00 0.00 0.00 0.00 0.00 0.00 0.00 0.00 0.00 0.00 0.00 0.00 0.00 0.00 0.00 0.00 0.00 0.00 0.00 0.00 0.00 0.00 0.00 0.00 0.00 0.00 0.00 0.00 0.00 0.00 0.00 0.00 0.00 0.00 0.00 0.00 0.00 0.00 0.00 0.00 0.00 0.00 0.00 0.00 0.00 0.00 0.00 0.00
0.00 0.00 0.00 0.00 0.00 0.00 0.00 0.00 0.00 0.00 0.00 0.00 0.00 0.00 0.00 0.00 0.00 0.00 0.00 0.00 0.00 0.00 0.00 0.00 0.00 0.00 0.00 0.00 0.00 0.00 0.00 0.00 0.00 0.00 0.00 0.00 0.00 0.00 0.00 0.00 0.00 0.00 0.00 0.00 0.00 0.00 0.00 0.00 0.00 0.00 0.00 0.00 0.00 0.00
0.00 0.00 0.00 0.00 0.00 0.00 0.00 0.00 0.00 0.00 0.00 0.00 0.00 0.00 0.00 0.00 0.00 0.00 0.00 0.00 0.00 0.00 0.00 0.00 0.00 0.00 0.00 0.00 0.00 0.00 0.00 0.00 0.00 0.00 0.00 0.00 0.00 0.00 0.00 0.00 0.00 0.00 0.00 0.00 0.00 0.00 0.00 0.00 0.00 0.00 0.00 0.00 0.00 0.00
0.00 0.00 0.00 0.00 0.00 0.00 0.00 0.00 0.00 0.00 0.00 0.00 0.00 0.00 0.00 0.00 0.00 0.00 0.00 0.00 0.00 0.01 0.01 0.00 0.00 0.00 0.00 0.00 0.00 0.00 0.00 0.00 0.00 0.00 0.00 0.00 0.00 0.00 0.00 0.00 0.00 0.00 0.00 0.00 0.00 0.00 0.00 0.01 0.00 0.00 0.00 0.00 0.00 0.00
0.00 0.00 0.00 0.00 0.00 0.00 0.00 0.00 0.00 0.00 0.00 0.00 0.00 0.00 0.00 0.00 0.00 0.00 0.00 0.00 0.00 0.00 0.00 0.00 0.00 0.00 0.00 0.00 0.00 0.00 0.00 0.00 0.00 0.00 0.00 0.00 0.00 0.00 0.00 0.00 0.00 0.00 0.00 0.00 0.00 0.00 0.00 0.00 0.00 0.00 0.00 0.00 0.00 0.00
0.00 0.00 0.00 0.00 0.00 0.00 0.00 0.00 0.00 0.00 0.00 0.00 0.00 0.00 0.00 0.00 0.00 0.01 0.01 0.00 0.00 0.00 0.01 0.00 0.00 0.00 0.00 0.00 0.00 0.00 0.00 0.00 0.00 0.01 0.01 0.00 0.00 0.01 0.00 0.00 0.00 0.00 0.00 0.00 0.00 0.00 0.00 0.00 0.00 0.00 0.00 0.00 0.00 0.00
0.00 0.00 0.00 0.00 0.00 0.00 0.00 0.00 0.00 0.00 0.00 0.00 0.00 0.00 0.00 0.00 0.00 0.01 0.00 0.00 0.00 0.02 0.02 0.00 0.00 0.00 0.00 0.00 0.00 0.00 0.00 0.00 0.00 0.01 0.00 0.00 0.00 0.01 0.00 0.00 0.00 0.00 0.00 0.00 0.00 0.00 0.00 0.00 0.00 0.00 0.00 0.00 0.00 0.00
0.00 0.00 0.00 0.00 0.00 0.00 0.00 0.00 0.00 0.00 0.00 0.00 0.00 0.00 0.00 0.00 0.01 0.00 0.00 0.00 0.00 0.02 0.03 0.00 0.00 0.00 0.00 0.00 0.00 0.00 0.00 0.00 0.00 0.00 0.00 0.00 0.00 0.00 0.00 0.00 0.00 0.00 0.00 0.00 0.00 0.00 0.00 0.00 0.00 0.00 0.00 0.00 0.00 0.00
0.00 0.00 0.00 0.00 0.00 0.00 0.00 0.00 0.00 0.00 0.00 0.00 0.00 0.00 0.00 0.00 0.00 0.00 0.01 0.01 0.00 0.00 0.00 0.00 0.00 0.00 0.00 0.00 0.00 0.00 0.00 0.00 0.00 0.00 0.00 0.00 0.00 0.00 0.00 0.00 0.00 0.00 0.00 0.00 0.00 0.00 0.00 0.00 0.00 0.00 0.00 0.00 0.00 0.00
0.00 0.00 0.00 0.00 0.00 0.00 0.00 0.00 0.00 0.00 0.00 0.00 0.00 0.00 0.00 0.00 0.00 0.01 0.00 0.00 0.00 0.00 0.00 0.00 0.00 0.00 0.00 0.00 0.00 0.00 0.00 0.00 0.00 0.00 0.00 0.00 0.00 0.00 0.00 0.00 0.00 0.00 0.00 0.00 0.00 0.00 0.00 0.00 0.00 0.00 0.00 0.00 0.00 0.00
0.00 0.00 0.00 0.00 0.00 0.00 0.00 0.00 0.00 0.00 0.00 0.00 0.00 0.00 0.00 0.00 0.00 0.00 0.00 0.00 0.00 0.00 0.00 0.00 0.00 0.00 0.00 0.00 0.00 0.00 0.00 0.00 0.00 0.00 0.00 0.00 0.00 0.00 0.00 0.00 0.00 0.00 0.00 0.00 0.00 0.00 0.00 0.00 0.00 0.00 0.00 0.00 0.00 0.00
0.00 0.00 0.00 0.00 0.00 0.00 0.00 0.00 0.00 0.00 0.00 0.00 0.00 0.00 0.00 0.00 0.00 0.00 0.00 0.00 0.00 0.00 0.00 0.00 0.00 0.00 0.00 0.00 0.00 0.00 0.00 0.00 0.00 0.00 0.00 0.00 0.00 0.00 0.00 0.00 0.00 0.00 0.00 0.00 0.00 0.00 0.00 0.00 0.00 0.00 0.00 0.00 0.00 0.00
0.00 0.00 0.00 0.00 0.00 0.00 0.00 0.00 0.00 0.00 0.00 0.00 0.00 0.00 0.00 0.00 0.00 0.00 0.00 0.00 0.00 0.00 0.00 0.00 0.00 0.00 0.00 0.00 0.00 0.00 0.00 0.00 0.00 0.00 0.00 0.00 0.00 0.00 0.00 0.00 0.00 0.00 0.00 0.00 0.00 0.00 0.00 0.00 0.00 0.00 0.00 0.00 0.00 0.00
0.00 0.00 0.00 0.00 0.00 0.00 0.00 0.00 0.00 0.00 0.00 0.00 0.00 0.00 0.00 0.00 0.00 0.00 0.00 0.00 0.00 0.00 0.00 0.00 0.00 0.00 0.00 0.00 0.00 0.00 0.00 0.00 0.00 0.00 0.00 0.00 0.00 0.00 0.00 0.00 0.00 0.00 0.00 0.00 0.00 0.00 0.00 0.00 0.00 0.00 0.00 0.00 0.00 0.00
0.00 0.00 0.00 0.00 0.00 0.00 0.00 0.00 0.00 0.00 0.00 0.00 0.00 0.00 0.00 0.00 0.00 0.00 0.00 0.00 0.00 0.00 0.00 0.00 0.00 0.00 0.00 0.00 0.00 0.00 0.00 0.01 0.01 0.00 0.00 0.00 0.00 0.00 0.00 0.00 0.00 0.00 0.00 0.00 0.00 0.00 0.00 0.00 0.00 0.00 0.00 0.00 0.00 0.00
0.00 0.00 0.00 0.00 0.00 0.00 0.00 0.00 0.00 0.00 0.00 0.00 0.00 0.00 0.00 0.00 0.00 0.00 0.00 0.00 0.00 0.00 0.00 0.00 0.00 0.00 0.00 0.00 0.00 0.00 0.00 0.00 0.00 0.00 0.00 0.00 0.00 0.00 0.00 0.00 0.00 0.00 0.00 0.00 0.00 0.00 0.00 0.00 0.00 0.00 0.00 0.00 0.00 0.00
0.00 0.01 0.00 0.00 0.00 0.00 0.00 0.00 0.00 0.00 0.00 0.00 0.00 0.00 0.00 0.00 0.00 0.00 0.00 0.00 0.00 0.00 0.00 0.00 0.00 0.00 0.00 0.00 0.00 0.00 0.00 0.00 0.00 0.00 0.00 0.00 0.00 0.00 0.00 0.00 0.00 0.00 0.00 0.00 0.00 0.00 0.00 0.00 0.00 0.00 0.00 0.00 0.00 0.00
0.02 0.02 0.00 0.00 0.00 0.00 0.00 0.00 0.00 0.00 0.00 0.00 0.00 0.00 0.00 0.00 0.00 0.00 0.00 0.00 0.00 0.00 0.00 0.00 0.00 0.00 0.00 0.00 0.00 0.00 0.00 0.00 0.00 0.00 0.00 0.00 0.00 0.00 0.00 0.00 0.00 0.00 0.00 0.00 0.00 0.00 0.00 0.00 0.00 0.00 0.00 0.00 0.00 0.01
0.00 0.00 0.00 0.00 0.00 0.00 0.00 0.00 0.00 0.00 0.00 0.00 0.00 0.00 0.00 0.00 0.00 0.00 0.00 0.00 0.00 0.00 0.00 0.00 0.00 0.00 0.00 0.00 0.00 0.00 0.00 0.00 0.00 0.00 0.00 0.00 0.00 0.00 0.00 0.00 0.00 0.00 0.00 0.00 0.00 0.00 0.00 0.00 0.00 0.01 0.02 0.03 0.02 0.01
0.00 0.00 0.00 0.00 0.00 0.00 0.00 0.00 0.00 0.00 0.00 0.00 0.00 0.00 0.00 0.00 0.00 0.00 0.00 0.00 0.00 0.00 0.00 0.00 0.00 0.00 0.00 0.00 0.00 0.00 0.00 0.00 0.00 0.00 0.00 0.00 0.00 0.00 0.00 0.00 0.00 0.00 0.00 0.00 0.00 0.00 0.00 0.01 0.01 0.02 0.04 0.01 0.01 0.00
0.00 0.00 0.00 0.00 0.00 0.00 0.00 0.00 0.00 0.00 0.00 0.00 0.00 0.00 0.00 0.00 0.00 0.00 0.00 0.00 0.00 0.00 0.00 0.00 0.00 0.00 0.00 0.00 0.00 0.00 0.00 0.00 0.00 0.00 0.00 0.00 0.00 0.00 0.00 0.00 0.00 0.00 0.00 0.01 0.01 0.00 0.00 0.01 0.01 0.02 0.01 0.00 0.00 0.00
0.00 0.00 0.00 0.00 0.00 0.00 0.00 0.00 0.00 0.00 0.00 0.00 0.00 0.00 0.00 0.00 0.00 0.00 0.00 0.00 0.00 0.00 0.00 0.00 0.00 0.00 0.00 0.00 0.00 0.00 0.00 0.00 0.00 0.00 0.00 0.00 0.00 0.00 0.00 0.00 0.01 0.01 0.01 0.00 0.01 0.01 0.01 0.01 0.01 0.00 0.00 0.00 0.00 0.01
0.00 0.00 0.00 0.00 0.00 0.00 0.00 0.00 0.00 0.00 0.00 0.00 0.00 0.00 0.00 0.00 0.00 0.00 0.00 0.00 0.00 0.00 0.00 0.00 0.00 0.00 0.00 0.00 0.00 0.00 0.00 0.00 0.00 0.00 0.00 0.00 0.00 0.01 0.01 0.01 0.01 0.02 0.02 0.02 0.01 0.00 0.00 0.00 0.00 0.00 0.00 0.00 0.01 0.01
0.00 0.00 0.00 0.00 0.00 0.00 0.00 0.00 0.00 0.00 0.00 0.00 0.00 0.00 0.00 0.00 0.00 0.00 0.00 0.00 0.00 0.00 0.00 0.00 0.00 0.00 0.00 0.00 0.00 0.00 0.00 0.00 0.00 0.00 0.00 0.01 0.01 0.01 0.01 0.01 0.01 0.01 0.01 0.01 0.00 0.00 0.00 0.00 0.00 0.00 0.00 0.01 0.00 0.01
0.00 0.00 0.00 0.00 0.00 0.00 0.00 0.00 0.00 0.00 0.00 0.00 0.00 0.00 0.00 0.00 0.00 0.00 0.00 0.00 0.00 0.00 0.00 0.00 0.00 0.00 0.00 0.00 0.00 0.00 0.00 0.00 0.00 0.00 0.00 0.00 0.00 0.01 0.01 0.00 0.00 0.01 0.01 0.00 0.00 0.01 0.01 0.01 0.01 0.01 0.01 0.00 0.01 0.01
0.00 0.00 0.00 0.00 0.00 0.00 0.00 0.00 0.00 0.00 0.00 0.00 0.00 0.00 0.00 0.00 0.00 0.00 0.00 0.00 0.00 0.00 0.00 0.00 0.00 0.00 0.00 0.00 0.00 0.00 0.00 0.00 0.00 0.00 0.00 0.00 0.00 0.00 0.00 0.00 0.00 0.00 0.00 0.00 0.00 0.00 0.01 0.01 0.01 0.01 0.01 0.01 0.01 0.01
0.00 0.00 0.00 0.00 0.00 0.00 0.00 0.00 0.00 0.00 0.00 0.00 0.00 0.00 0.00 0.00 0.00 0.00 0.00 0.00 0.00 0.00 0.00 0.00 0.00 0.00 0.00 0.00 0.00 0.00 0.00 0.00 0.00 0.00 0.00 0.00 0.00 0.00 0.00 0.00 0.00 0.00 0.00 0.00 0.00 0.00 0.00 0.00 0.00 0.01 0.01 0.01 0.01 0.01
0.00 0.00 0.00 0.00 0.00 0.00 0.00 0.00 0.00 0.00 0.00 0.00 0.00 0.00 0.00 0.00 0.00 0.00 0.00 0.00 0.00 0.00 0.00 0.00 0.00 0.00 0.00 0.00 0.00 0.00 0.00 0.00 0.00 0.00 0.00 0.00 0.00 0.00 0.00 0.00 0.00 0.00 0.00 0.00 0.00 0.00 0.00 0.00 0.00 0.00 0.00 0.00 0.00 0.00
0.00 0.00 0.00 0.00 0.00 0.00 0.00 0.00 0.00 0.00 0.00 0.00 0.00 0.00 0.00 0.00 0.00 0.00 0.00 0.00 0.00 0.00 0.00 0.00 0.00 0.00 0.00 0.00 0.00 0.00 0.00 0.00 0.00 0.00 0.00 0.00 0.00 0.00 0.00 0.00 0.00 0.00 0.00 0.00 0.00 0.00 0.00 0.00 0.00 0.01 0.00 0.00 0.00 0.00
0.00 0.00 0.00 0.00 0.00 0.00 0.00 0.00 0.00 0.00 0.00 0.00 0.00 0.00 0.01 0.00 0.00 0.00 0.00 0.00 0.00 0.00 0.00 0.00 0.00 0.00 0.00 0.00 0.00 0.00 0.00 0.00 0.00 0.00 0.00 0.00 0.00 0.00 0.00 0.00 0.00 0.00 0.00 0.00 0.00 0.00 0.00 0.00 0.00 0.00 0.00 0.00 0.00 0.00
0.00 0.00 0.00 0.00 0.00 0.00 0.00 0.00 0.00 0.00 0.00 0.00 0.00 0.00 0.00 0.00 0.00 0.00 0.00 0.00 0.00 0.00 0.00 0.00 0.00 0.00 0.00 0.00 0.00 0.00 0.00 0.00 0.00 0.00 0.00 0.00 0.00 0.00 0.00 0.00 0.00 0.00 0.00 0.00 0.00 0.00 0.00 0.00 0.00 0.00 0.00 0.00 0.00 0.00
0.00 0.00 0.00 0.00 0.00 0.00 0.00 0.00 0.00 0.00 0.00 0.00 0.00 0.00 0.00 0.00 0.00 0.00 0.00 0.00 0.00 0.00 0.00 0.00 0.00 0.00 0.00 0.00 0.00 0.00 0.00 0.00 0.00 0.00 0.00 0.00 0.00 0.00 0.00 0.00 0.00 0.00 0.00 0.00 0.00 0.00 0.00 0.00 0.00 0.00 0.00 0.00 0.00 0.00
MSLP
1009.14 1009.94 1010.79 1011.45 1012.08 1012.75 1013.29 1013.61 1013.87 1014.01 1014.08 1014.12 1014.12 1014.05 1013.91 1013.71 1013.34 1013.09 1012.84 1012.63 1012.48 1012.46 1012.63 1012.28 1012.06 1011.98 1012.17 1012.62 1013.65 1014.54 1015.64 1016.13 1017.01 1018.39 1019.36 1019.41 1019.60 1018.74 1018.44 1018.02 1018.86 1019.70 1020.64 1021.20 1021.13 1020.63 1019.04 1017.79 1017.84 1018.67 1018.85 1019.31 1020.00 1020.64
1009.31 1010.05 1010.91 1011.64 1012.25 1012.82 1013.25 1013.56 1013.87 1014.08 1014.20 1014.32 1014.37 1014.37 1014.26 1013.98 1013.58 1013.30 1012.60 1012.69 1012.52 1012.44 1013.37 1013.35 1013.51 1013.53 1013.36 1013.31 1013.01 1014.33 1014.60 1015.31 1016.29 1017.57 1019.12 1019.77 1020.08 1019.68 1019.09 1018.21 1017.17 1017.69 1017.95 1018.52 1018.98 1018.19 1017.48 1017.23 1017.76 1018.61 1019.23 1019.85 1020.61 1021.24
1010.51 1010.58 1011.21 1011.84 1012.48 1012.90 1013.29 1013.68 1014.00 1014.25 1014.42 1014.57 1014.68 1014.71 1014.60 1014.32 1013.97 1013.80 1012.95 1013.02 1012.49 1013.12 1013.73 1013.76 1013.85 1013.94 1013.71 1013.73 1013.57 1014.14 1014.69 1014.62 1015.46 1016.25 1018.97 1020.19 1020.45 1019.77 1019.47 1018.27 1017.16 1016.58 1016.60 1016.93 1017.33 1016.99 1016.95 1017.10 1017.51 1018.68 1019.51 1020.22 1020.78 1021.30
1011.57 1011.56 1011.85 1012.22 1012.73 1013.16 1013.48 1013.79 1014.11 1014.39 1014.57 1014.71 1014.86 1014.90 1014.87 1014.67 1014.29 1014.15 1013.27 1013.48 1013.11 1013.89 1014.35 1014.30 1014.25 1014.12 1014.46 1014.10 1013.90 1014.07 1014.12 1014.93 1015.72 1017.30 1019.14 1019.76 1019.51 1018.55 1018.63 1017.88 1017.10 1016.60 1016.36 1016.28 1016.26 1016.31 1016.50 1017.32 1018.14 1019.04 1019.82 1020.47 1020.78 1020.89
1012.22 1012.34 1012.47 1012.89 1013.15 1013.41 1013.70 1014.08 1014.33 1014.54 1014.74 1014.98 1015.14 1015.20 1015.19 1015.03 1014.66 1014.08 1013.64 1013.76 1013.76 1013.95 1014.41 1014.58 1014.50 1014.64 1014.61 1014.50 1014.42 1014.57 1014.86 1015.42 1016.60 1018.26 1019.24 1019.06 1018.39 1018.01 1018.14 1018.25 1017.18 1016.28 1015.90 1016.11 1015.92 1016.28 1016.86 1017.86 1019.04 1019.45 1019.78 1020.38 1020.73 1020.65
1013.24 1013.38 1013.48 1013.68 1013.75 1013.86 1014.01 1014.23 1014.46 1014.74 1015.02 1015.24 1015.44 1015.51 1015.50 1015.32 1014.99 1014.05 1013.89 1014.12 1014.21 1014.09 1014.76 1015.23 1015.27 1015.02 1014.99 1014.92 1014.90 1015.09 1015.32 1015.72 1016.34 1017.62 1018.54 1018.05 1017.27 1017.68 1018.18 1017.69 1016.30 1015.65 1015.53 1015.61 1016.21 1016.78 1017.63 1018.78 1019.50 1019.82 1020.03 1020.37 1020.57 1021.07
1013.96 1014.24 1014.29 1014.11 1014.19 1014.25 1014.28 1014.37 1014.56 1014.77 1015.05 1015.34 1015.60 1015.76 1015.79 1015.51 1015.00 1015.16 1015.47 1015.70 1015.38 1014.82 1015.16 1015.95 1015.92 1016.09 1016.01 1015.50 1015.69 1015.86 1016.14 1016.38 1016.82 1017.36 1018.01 1018.28 1017.61 1017.51 1017.65 1016.91 1016.06 1015.59 1015.50 1015.77 1016.81 1017.75 1018.71 1019.31 1019.75 1019.97 1019.97 1020.16 1020.55 1020.82
1014.72 1014.77 1014.80 1014.82 1014.68 1014.68 1014.63 1014.59 1014.62 1014.81 1015.09 1015.40 1015.64 1015.88 1015.94 1015.76 1015.69 1015.80 1015.85 1015.51 1015.36 1014.85 1015.53 1016.39 1016.84 1017.07 1016.71 1016.61 1017.33 1017.49 1017.61 1017.87 1017.85 1017.88 1018.49 1018.43 1017.76 1017.71 1016.86 1015.76 1015.47 1015.28 1015.20 1016.31 1017.44 1018.27 1018.90 1019.52 1019.75 1019.68 1019.98 1020.23 1020.73 1021.08
1015.05 1015.19 1015.18 1015.12 1014.99 1014.86 1014.85 1014.87 1014.87 1014.94 1015.20 1015.54 1015.86 1016.09 1016.06 1016.13 1015.97 1015.56 1015.85 1015.70 1015.23 1015.62 1015.88 1016.82 1017.03 1017.15 1017.05 1018.06 1018.68 1018.96 1018.88 1019.10 1018.92 1018.92 1018.98 1018.77 1018.02 1017.07 1015.68 1015.31 1015.01 1014.81 1015.83 1016.86 1017.97 1018.65 1019.18 1019.42 1019.42 1019.80 1020.19 1020.73 1021.22 1021.59
1015.52 1015.50 1015.49 1015.46 1015.41 1015.23 1015.12 1015.04 1015.00 1015.07 1015.28 1015.66 1016.06 1016.55 1016.68 1016.77 1016.58 1016.18 1016.02 1015.95 1015.88 1015.83 1016.30 1016.97 1016.82 1017.15 1017.24 1018.74 1019.29 1019.89 1020.09 1019.77 1019.65 1019.57 1019.62 1018.85 1017.17 1016.22 1015.35 1015.02 1015.07 1015.34 1016.16 1017.31 1017.99 1018.52 1018.87 1019.49 1019.99 1020.50 1020.96 1021.40 1021.78 1022.24
1015.91 1015.88 1015.99 1015.85 1015.62 1015.58 1015.27 1015.15 1015.15 1015.34 1015.61 1015.85 1016.46 1016.95 1017.36 1017.15 1016.88 1016.81 1016.83 1017.01 1016.88 1016.84 1016.75 1016.88 1017.04 1017.37 1017.87 1018.51 1019.48 1020.08 1020.26 1020.27 1020.08 1019.64 1019.48 1018.18 1016.68 1015.47 1015.01 1015.33 1015.95 1016.15 1016.65 1017.46 1018.06 1018.68 1019.45 1020.17 1020.72 1021.17 1021.59 1022.07 1022.56 1022.87
1016.25 1016.28 1016.29 1016.27 1016.05 1016.10 1015.76 1015.56 1015.75 1015.83 1016.21 1016.42 1016.64 1017.19 1017.45 1017.51 1017.67 1017.45 1017.31 1017.50 1017.18 1016.92 1017.21 1017.43 1017.53 1017.67 1018.53 1018.63 1019.34 1020.53 1020.41 1020.53 1019.70 1019.59 1019.26 1017.33 1015.80 1015.23 1015.41 1016.21 1016.84 1017.21 1017.60 1018.24 1019.06 1019.84 1020.53 1020.99 1021.43 1021.92 1022.31 1022.59 1022.90 1023.08
1016.90 1016.74 1016.60 1016.42 1016.32 1016.50 1016.51 1016.28 1016.24 1016.55 1016.48 1016.86 1017.29 1017.88 1018.09 1018.69 1018.37 1017.93 1017.82 1017.55 1017.55 1017.56 1017.84 1018.11 1018.58 1018.89 1019.42 1019.54 1019.91 1020.28 1020.23 1019.94 1019.67 1019.20 1018.21 1016.87 1016.24 1016.19 1016.37 1017.08 1017.61 1018.30 1019.12 1019.56 1020.12 1020.72 1021.33 1021.75 1022.11 1022.54 1022.75 1022.77 1022.89 1023.01
1017.12 1017.10 1017.08 1016.96 1016.95 1016.94 1017.02 1016.96 1016.83 1016.61 1017.06 1018.12 1018.63 1018.80 1018.88 1018.91 1018.85 1018.69 1018.84 1018.63 1018.58 1018.35 1018.43 1018.51 1018.99 1019.30 1019.68 1019.75 1019.93 1020.02 1019.98 1019.64 1019.27 1018.64 1017.79 1016.96 1016.76 1016.87 1017.33 1017.92 1018.56 1019.72 1020.61 1020.97 1021.34 1021.55 1021.83 1022.14 1022.35 1022.68 1022.92 1022.85 1022.99 1022.86
1017.45 1017.32 1017.33 1017.38 1017.35 1017.46 1017.64 1017.57 1017.43 1017.18 1017.60 1018.38 1018.74 1018.97 1019.18 1019.49 1019.44 1019.34 1019.43 1019.36 1019.14 1018.92 1019.00 1019.02 1019.13 1019.32 1019.69 1019.85 1019.77 1019.79 1019.77 1019.09 1018.68 1018.32 1018.30 1017.93 1017.95 1018.16 1018.69 1019.15 1019.88 1020.58 1021.17 1021.40 1021.45 1021.64 1021.86 1022.09 1022.27 1022.38 1022.40 1022.40 1022.39 1022.41
1017.65 1017.67 1017.57 1017.81 1017.86 1017.78 1018.02 1017.97 1018.00 1018.13 1018.13 1018.64 1019.02 1019.31 1019.43 1019.37 1019.68 1019.74 1019.84 1019.80 1019.58 1019.32 1019.10 1019.19 1019.33 1019.40 1019.63 1019.58 1019.48 1019.14 1019.00 1018.77 1018.70 1018.87 1018.83 1018.98 1019.20 1019.44 1019.72 1020.08 1020.44 1020.74 1021.07 1021.36 1021.54 1021.65 1021.74 1021.81 1021.90 1021.94 1021.89 1021.96 1021.87 1021.95
1017.69 1017.50 1017.81 1018.04 1018.16 1018.07 1018.17 1018.35 1018.85 1019.16 1019.04 1018.88 1019.11 1019.28 1019.46 1019.55 1019.88 1020.04 1020.08 1020.05 1019.86 1019.81 1019.74 1019.58 1019.44 1019.78 1019.93 1019.56 1019.29 1019.15 1019.08 1019.20 1019.28 1019.34 1019.47 1019.56 1019.83 1020.14 1020.35 1020.53 1020.73 1020.90 1021.06 1021.24 1021.34 1021.41 1021.39 1021.32 1021.40 1021.65 1021.52 1021.02 1020.81 1020.70
1017.70 1017.65 1017.95 1018.18 1017.92 1018.20 1018.70 1018.66 1019.09 1019.16 1019.08 1018.92 1019.09 1019.50 1019.79 1019.98 1020.16 1020.21 1020.25 1020.31 1020.29 1020.28 1019.94 1019.83 1019.67 1019.63 1019.48 1019.26 1019.03 1019.01 1019.05 1019.22 1019.32 1019.52 1019.78 1019.96 1020.12 1020.37 1020.61 1020.82 1020.89 1020.95 1020.96 1021.01 1021.09 1021.08 1021.03 1020.98 1020.94 1020.78 1020.47 1020.11 1019.83 1019.84
1018.28 1017.92 1018.21 1018.45 1018.33 1018.49 1019.05 1019.25 1018.97 1018.89 1019.12 1019.20 1019.74 1019.94 1020.26 1020.63 1020.84 1020.88 1020.82 1020.83 1020.62 1020.38 1020.04 1019.79 1019.65 1019.34 1019.09 1019.02 1019.08 1019.18 1019.21 1019.29 1019.55 1019.86 1019.93 1020.06 1020.26 1020.44 1020.63 1020.75 1020.96 1020.99 1020.84 1020.68 1020.58 1020.53 1020.38 1020.22 1020.12 1019.88 1019.67 1019.51 1019.42 1019.33
1018.57 1018.79 1018.82 1018.85 1018.77 1018.73 1019.13 1019.14 1019.08 1018.80 1018.90 1019.25 1019.79 1020.15 1020.71 1021.09 1021.36 1021.26 1021.03 1021.04 1020.86 1020.52 1020.24 1019.74 1019.28 1019.12 1019.09 1019.06 1019.14 1019.29 1019.31 1019.54 1019.78 1020.03 1020.12 1020.12 1020.02 1020.14 1020.34 1020.41 1020.50 1020.64 1020.51 1020.24 1020.08 1019.96 1019.83 1019.57 1019.24 1019.05 1018.93 1018.85 1018.94 1019.11
1018.87 1019.30 1019.30 1019.16 1018.85 1018.34 1018.55 1018.61 1018.85 1018.89 1019.05 1019.34 1019.95 1020.01 1021.06 1021.31 1021.36 1021.32 1021.31 1021.17 1020.90 1020.31 1019.42 1018.91 1018.88 1019.12 1019.23 1019.40 1019.60 1019.60 1019.72 1019.86 1019.93 1020.15 1020.29 1020.20 1020.10 1020.18 1020.27 1020.29 1020.19 1020.20 1020.16 1019.99 1019.89 1019.73 1019.57 1019.31 1018.98 1018.65 1018.55 1018.82 1018.97 1019.13
1019.44 1019.47 1019.90 1020.10 1019.60 1019.19 1019.03 1019.03 1018.80 1019.04 1019.27 1019.73 1020.01 1020.06 1020.87 1021.14 1021.35 1021.51 1021.53 1021.17 1020.37 1019.26 1018.82 1018.68 1018.78 1018.89 1019.07 1019.30 1019.46 1019.61 1019.85 1020.03 1020.12 1020.34 1020.42 1020.24 1020.16 1019.99 1019.90 1019.92 1019.98 1019.90 1019.83 1019.73 1019.62 1019.42 1019.19 1018.90 1018.80 1018.66 1018.59 1018.57 1018.70 1018.76
1019.77 1019.96 1020.10 1020.07 1019.83 1019.47 1019.83 1019.36 1019.13 1019.03 1019.40 1019.82 1019.96 1020.30 1020.83 1021.20 1021.38 1021.80 1021.25 1020.48 1019.61 1019.09 1018.93 1018.81 1018.90 1019.18 1019.43 1019.48 1019.66 1019.89 1020.03 1020.19 1020.19 1020.14 1020.09 1020.01 1019.98 1019.86 1019.85 1019.82 1019.75 1019.66 1019.43 1019.17 1019.03 1018.94 1018.82 1018.77 1018.78 1018.65 1018.52 1018.44 1018.41 1018.38
1020.01 1020.08 1019.76 1019.73 1019.52 1019.39 1019.51 1019.23 1019.03 1019.06 1019.24 1019.47 1019.78 1020.15 1020.51 1020.99 1021.51 1021.24 1020.61 1019.94 1019.50 1019.48 1019.72 1019.72 1019.70 1019.54 1019.68 1019.83 1019.82 1019.79 1020.13 1020.29 1020.38 1020.20 1020.15 1020.22 1020.11 1019.88 1019.72 1019.52 1019.37 1019.24 1019.13 1018.95 1018.87 1018.82 1018.79 1018.69 1018.55 1018.45 1018.31 1018.15 1018.13 1018.01
1020.17 1020.25 1019.78 1019.47 1019.31 1019.07 1018.91 1019.04 1018.94 1018.95 1019.12 1019.45 1019.77 1020.12 1020.68 1021.17 1021.00 1020.79 1020.53 1020.19 1020.82 1021.22 1021.26 1020.90 1020.32 1020.08 1020.02 1020.25 1020.40 1020.80 1021.33 1021.65 1021.76 1021.54 1021.15 1021.01 1020.77 1020.48 1020.30 1020.11 1019.85 1019.62 1019.34 1019.25 1018.84 1018.57 1018.50 1018.46 1018.36 1018.16 1018.03 1017.98 1017.88 1017.66
1019.04 1019.35 1019.08 1018.62 1018.60 1018.34 1018.47 1018.55 1018.61 1018.72 1018.97 1019.30 1019.79 1020.50 1020.86 1020.81 1020.89 1020.61 1020.62 1021.64 1022.10 1022.56 1022.56 1022.43 1022.11 1021.68 1021.53 1022.02 1022.23 1022.60 1022.98 1023.21 1023.24 1022.85 1022.38 1022.47 1022.36 1022.01 1021.44 1020.99 1020.50 1020.32 1020.88 1020.54 1019.91 1019.34 1018.91 1018.52 1018.20 1017.93 1017.79 1017.71 1017.54 1017.35
1018.54 1018.67 1018.73 1018.65 1018.21 1018.19 1018.69 1018.89 1018.88 1018.86 1018.87 1019.04 1019.65 1020.49 1020.83 1021.02 1020.96 1021.20 1022.43 1023.50 1023.61 1023.99 1023.91 1023.91 1023.76 1023.69 1023.72 1023.72 1023.98 1024.18 1024.31 1024.38 1024.37 1024.03 1023.38 1022.82 1022.70 1022.94 1022.85 1022.64 1022.29 1022.26 1021.78 1021.22 1020.74 1020.26 1019.65 1019.04 1018.51 1018.09 1017.80 1017.51 1017.38 1017.27
1018.42 1018.40 1018.42 1018.44 1018.20 1018.29 1018.48 1018.67 1018.82 1018.63 1018.57 1018.75 1019.62 1020.29 1020.82 1021.30 1022.37 1023.41 1024.28 1024.83 1024.96 1024.81 1024.67 1024.77 1024.92 1025.04 1024.87 1024.93 1024.88 1024.88 1025.04 1025.11 1024.67 1024.08 1023.38 1023.34 1023.26 1023.60 1023.81 1023.69 1023.36 1022.95 1022.44 1022.01 1021.52 1020.88 1020.25 1019.58 1018.98 1018.47 1018.19 1017.90 1017.62 1017.45
1018.66 1018.73 1018.87 1018.89 1018.68 1018.78 1018.76 1018.69 1018.64 1018.54 1018.51 1019.02 1019.56 1020.23 1021.57 1023.32 1024.63 1025.01 1025.60 1025.85 1025.77 1025.64 1025.60 1025.64 1025.76 1025.81 1025.66 1025.57 1025.50 1025.70 1025.93 1026.04 1025.79 1025.32 1024.95 1024.57 1024.40 1024.46 1024.68 1024.34 1023.99 1023.58 1023.08 1022.52 1021.85 1021.27 1020.61 1019.85 1019.19 1018.70 1018.40 1018.20 1018.26 1018.24
1019.21 1019.10 1018.78 1018.98 1018.99 1018.97 1019.39 1019.41 1019.58 1019.83 1019.41 1019.83 1020.04 1021.11 1022.78 1024.91 1026.32 1026.60 1026.54 1026.59 1026.59 1026.64 1026.66 1026.69 1026.74 1026.75 1026.66 1026.63 1026.53 1026.53 1026.61 1026.85 1027.05 1027.04 1026.69 1026.40 1026.30 1026.05 1025.58 1025.19 1024.87 1024.29 1023.69 1023.06 1022.31 1021.51 1020.65 1020.10 1019.41 1018.79 1018.88 1019.07 1019.27 1019.18
1019.52 1019.40 1019.36 1019.37 1019.44 1019.92 1020.33 1020.61 1020.55 1020.49 1020.46 1020.47 1020.84 1021.47 1023.28 1025.28 1026.81 1027.58 1027.58 1027.46 1027.40 1027.56 1027.53 1027.54 1027.52 1027.55 1027.65 1027.52 1027.45 1027.34 1027.24 1027.44 1027.58 1027.63 1027.68 1027.41 1027.18 1026.80 1026.45 1026.06 1025.65 1024.89 1024.26 1023.59 1022.82 1021.93 1021.20 1020.72 1020.16 1019.83 1019.91 1020.19 1020.43 1020.57
1019.89 1019.88 1019.88 1019.79 1019.92 1020.53 1020.67 1020.62 1020.49 1020.48 1020.33 1020.75 1021.11 1022.35 1023.58 1024.56 1026.08 1027.63 1028.57 1028.26 1028.07 1028.25 1028.60 1028.57 1028.51 1028.43 1028.49 1028.31 1028.00 1027.98 1028.07 1027.96 1027.81 1027.76 1027.65 1027.56 1027.48 1027.25 1026.92 1026.52 1025.81 1025.30 1024.85 1024.21 1023.22 1022.25 1021.83 1021.51 1021.15 1021.18 1021.18 1021.44 1021.68 1021.96
1020.53 1020.57 1020.58 1020.49 1020.39 1020.39 1020.70 1020.76 1020.36 1020.34 1020.63 1020.94 1021.88 1022.97 1024.41 1025.34 1026.62 1028.01 1028.78 1028.97 1029.01 1029.19 1029.36 1029.43 1029.32 1029.01 1028.69 1028.63 1028.58 1028.20 1028.26 1028.17 1028.07 1027.87 1027.75 1027.73 1027.63 1027.51 1027.16 1026.57 1026.01 1025.72 1025.34 1024.59 1023.53 1022.75 1022.55 1022.55 1022.53 1022.50 1022.64 1022.83 1023.07 1023.37
Thickness
5503 5505 5507 5511 5513 5516 5520 5525 5531 5537 5544 5550 5556 5562 5568 5574 5581 5588 5593 5597 5602 5598 5603 5611 5617 5617 5618 5616 5596 5604 5594 5595 5587 5565 5568 5580 5570 5584 5588 5597 5569 5554 5549 5537 5541 5534 5540 5572 5565 5545 5549 5543 5533 5524
5500 5503 5504 5506 5508 5512 5516 5521 5527 5533 5538 5544 5549 5555 5560 5567 5575 5581 5589 5591 5596 5597 5594 5599 5600 5603 5605 5607 5611 5603 5600 5597 5592 5580 5575 5572 5554 5559 5566 5575 5599 5572 5575 5564 5556 5555 5568 5567 5552 5547 5536 5527 5515 5507
5488 5496 5500 5501 5503 5508 5512 5517 5522 5527 5532 5536 5542 5546 5552 5560 5566 5572 5583 5583 5591 5582 5584 5588 5589 5595 5601 5601 5607 5591 5593 5602 5597 5598 5568 5556 5541 5563 5549 5567 5578 5585 5588 5565 5557 5568 5563 5560 5553 5536 5525 5513 5504 5495
5478 5486 5492 5496 5499 5503 5507 5512 5516 5521 5526 5530 5535 5540 5545 5551 5558 5563 5573 5575 5580 5570 5548 5577 5584 5585 5588 5592 5596 5597 5597 5592 5589 5576 5549 5540 5543 5574 5559 5567 5568 5575 5573 5568 5561 5564 5557 5546 5535 5522 5511 5501 5493 5487
5470 5477 5484 5488 5493 5498 5502 5506 5510 5515 5519 5524 5528 5533 5537 5543 5549 5556 5563 5566 5569 5569 5555 5568 5575 5577 5579 5582 5583 5584 5583 5579 5569 5550 5534 5542 5561 5563 5556 5550 5556 5569 5563 5549 5544 5551 5544 5531 5516 5507 5501 5490 5482 5478
5457 5464 5472 5478 5485 5491 5495 5500 5505 5509 5513 5517 5519 5524 5528 5534 5541 5551 5554 5556 5558 5563 5554 5549 5564 5567 5569 5571 5573 5572 5573 5571 5569 5553 5541 5554 5567 5555 5534 5539 5563 5567 5563 5557 5544 5538 5528 5512 5500 5493 5486 5479 5472 5460
5448 5452 5461 5471 5477 5484 5490 5495 5499 5503 5507 5510 5513 5517 5521 5527 5534 5538 5542 5542 5545 5550 5544 5537 5548 5551 5553 5561 5561 5559 5559 5557 5557 5553 5544 5542 5548 5544 5518 5533 5556 5555 5551 5544 5533 5519 5506 5495 5485 5482 5478 5470 5459 5451
5436 5444 5452 5459 5468 5475 5482 5488 5494 5498 5500 5503 5506 5509 5513 5518 5523 5527 5528 5532 5536 5544 5539 5531 5533 5536 5544 5542 5536 5536 5532 5534 5537 5541 5529 5531 5538 5519 5521 5548 5547 5546 5543 5526 5513 5501 5492 5482 5476 5474 5467 5458 5445 5434
5429 5437 5444 5452 5459 5467 5475 5480 5486 5491 5493 5495 5497 5500 5504 5508 5515 5522 5519 5523 5527 5528 5530 5510 5518 5521 5533 5517 5512 5512 5516 5509 5519 5509 5515 5516 5514 5516 5536 5537 5538 5536 5522 5508 5495 5486 5479 5473 5470 5460 5450 5438 5426 5415
5421 5428 5435 5442 5450 5458 5466 5473 5479 5483 5487 5488 5489 5491 5491 5495 5501 5506 5511 5513 5512 5519 5517 5509 5527 5521 5525 5502 5499 5497 5489 5498 5497 5500 5491 5489 5508 5527 5533 5530 5525 5517 5508 5492 5482 5474 5470 5460 5450 5439 5428 5417 5407 5396
5411 5418 5424 5433 5442 5448 5458 5465 5470 5474 5477 5480 5477 5476 5480 5486 5490 5489 5490 5495 5497 5499 5503 5508 5515 5507 5506 5498 5490 5483 5480 5480 5489 5491 5487 5492 5501 5520 5522 5515 5505 5498 5490 5481 5473 5465 5452 5439 5428 5419 5408 5395 5385 5376
5401 5407 5414 5422 5430 5436 5446 5453 5456 5462 5465 5469 5471 5470 5471 5472 5468 5482 5479 5475 5485 5507 5491 5489 5496 5502 5486 5494 5484 5464 5472 5462 5484 5475 5468 5488 5510 5511 5505 5492 5483 5477 5471 5462 5451 5439 5427 5418 5409 5396 5386 5378 5369 5359
5387 5395 5404 5413 5420 5423 5430 5437 5442 5446 5453 5456 5456 5454 5459 5448 5462 5467 5477 5480 5483 5474 5474 5475 5474 5471 5466 5467 5455 5455 5462 5466 5456 5463 5471 5489 5493 5488 5484 5473 5465 5455 5438 5433 5427 5417 5405 5396 5384 5374 5367 5360 5351 5345
5383 5386 5391 5399 5406 5411 5416 5422 5427 5435 5438 5434 5436 5447 5446 5452 5449 5451 5453 5457 5456 5460 5461 5461 5457 5459 5449 5453 5446 5458 5447 5450 5454 5459 5463 5476 5473 5469 5462 5452 5444 5429 5405 5403 5398 5392 5384 5373 5367 5358 5348 5342 5334 5329
5378 5382 5385 5388 5393 5398 5401 5407 5413 5419 5422 5421 5424 5435 5432 5423 5425 5427 5427 5435 5438 5444 5444 5445 5444 5447 5443 5442 5440 5439 5438 5447 5449 5451 5443 5446 5442 5438 5427 5424 5411 5400 5388 5384 5385 5376 5364 5358 5352 5349 5340 5332 5326 5318
5373 5376 5379 5381 5384 5387 5389 5393 5397 5401 5407 5408 5408 5412 5410 5418 5417 5415 5414 5418 5426 5427 5432 5433 5431 5436 5435 5434 5433 5437 5438 5438 5434 5427 5426 5420 5412 5407 5403 5399 5394 5389 5381 5374 5368 5362 5356 5347 5339 5337 5330 5319 5312 5304
5370 5375 5374 5376 5379 5382 5382 5382 5379 5378 5389 5390 5399 5398 5399 5403 5403 5403 5405 5406 5409 5410 5415 5417 5425 5415 5409 5419 5420 5415 5417 5413 5411 5409 5402 5399 5394 5390 5387 5382 5369 5368 5365 5360 5354 5348 5343 5336 5327 5320 5315 5313 5307 5301
5365 5367 5369 5370 5374 5374 5372 5374 5373 5377 5380 5388 5392 5386 5386 5387 5389 5391 5394 5395 5397 5398 5403 5403 5403 5402 5407 5409 5414 5410 5408 5403 5397 5391 5387 5384 5381 5375 5370 5365 5362 5357 5352 5346 5337 5333 5327 5319 5313 5310 5306 5304 5300 5292
5354 5359 5360 5361 5363 5364 5362 5363 5370 5376 5374 5375 5369 5373 5372 5369 5370 5372 5374 5376 5379 5381 5387 5389 5389 5394 5399 5399 5395 5390 5388 5384 5380 5377 5374 5370 5365 5359 5352 5348 5343 5339 5335 5330 5326 5322 5317 5311 5305 5301 5297 5293 5287 5282
5344 5345 5348 5350 5352 5354 5352 5358 5360 5368 5371 5368 5363 5364 5358 5357 5354 5356 5360 5361 5364 5367 5367 5370 5377 5383 5384 5382 5378 5374 5374 5368 5365 5360 5357 5355 5352 5349 5341 5335 5330 5325 5322 5318 5315 5308 5306 5305 5302 5295 5290 5285 5278 5270
5332 5332 5335 5338 5343 5351 5354 5357 5354 5358 5357 5357 5353 5359 5346 5347 5350 5353 5352 5351 5353 5358 5367 5374 5372 5368 5366 5362 5358 5356 5354 5352 5349 5344 5341 5338 5334 5328 5323 5320 5318 5314 5310 5306 5301 5300 5294 5290 5288 5287 5280 5271 5263 5257
5317 5320 5321 5321 5328 5333 5341 5344 5350 5349 5348 5346 5347 5352 5342 5343 5342 5341 5339 5343 5351 5362 5366 5365 5364 5362 5357 5351 5348 5344 5340 5335 5331 5327 5321 5319 5317 5316 5314 5310 5305 5301 5298 5293 5289 5285 5284 5281 5276 5272 5266 5261 5255 5250
5304 5308 5311 5314 5322 5329 5326 5334 5338 5346 5340 5339 5343 5340 5338 5337 5336 5330 5336 5345 5351 5356 5356 5356 5352 5344 5339 5337 5331 5327 5325 5321 5318 5317 5313 5312 5309 5305 5301 5298 5293 5287 5286 5287 5281 5276 5272 5266 5262 5258 5254 5250 5246 5243
5292 5299 5311 5316 5321 5323 5325 5329 5338 5340 5341 5341 5341 5339 5340 5334 5325 5329 5338 5345 5348 5345 5338 5335 5332 5331 5327 5322 5321 5320 5315 5310 5308 5306 5301 5297 5295 5294 5290 5288 5284 5279 5273 5271 5267 5261 5255 5250 5247 5244 5242 5240 5236 5235
5297 5298 5306 5309 5314 5323 5328 5328 5332 5336 5335 5333 5333 5333 5327 5322 5329 5332 5331 5339 5321 5310 5309 5313 5318 5318 5316 5313 5309 5301 5292 5286 5283 5282 5281 5277 5274 5273 5272 5270 5267 5263 5257 5254 5252 5247 5240 5234 5231 5231 5230 5228 5226 5225
5303 5299 5309 5315 5316 5328 5329 5328 5330 5332 5331 5328 5326 5320 5317 5323 5324 5329 5335 5311 5301 5293 5290 5289 5290 5293 5292 5284 5278 5271 5265 5260 5256 5257 5258 5250 5245 5243 5245 5246 5247 5244 5230 5228 5227 5225 5221 5218 5218 5219 5219 5218 5217 5216
5306 5307 5308 5311 5321 5322 5317 5318 5323 5323 5322 5324 5322 5311 5313 5314 5321 5320 5294 5278 5277 5270 5269 5265 5264 5262 5259 5257 5250 5246 5243 5239 5234 5233 5235 5234 5230 5223 5219 5217 5216 5212 5210 5208 5206 5203 5202 5203 5205 5207 5207 5208 5207 5206
5306 5310 5309 5311 5317 5320 5316 5317 5315 5318 5321 5326 5316 5308 5309 5314 5303 5277 5265 5258 5254 5254 5253 5249 5244 5239 5238 5234 5232 5229 5225 5220 5219 5219 5220 5215 5212 5205 5198 5195 5193 5191 5190 5188 5187 5187 5187 5188 5191 5192 5192 5192 5193 5192
5301 5303 5303 5298 5309 5310 5313 5316 5317 5320 5319 5313 5309 5309 5298 5267 5253 5251 5243 5239 5237 5235 5232 5229 5225 5221 5219 5216 5213 5209 5203 5197 5194 5193 5191 5192 5189 5184 5177 5175 5173 5172 5171 5172 5172 5172 5173 5175 5177 5179 5179 5179 5175 5173
5293 5296 5303 5299 5301 5309 5304 5302 5300 5291 5297 5292 5291 5280 5263 5241 5228 5226 5225 5221 5218 5214 5212 5208 5205 5200 5198 5194 5190 5187 5183 5177 5170 5166 5164 5163 5160 5158 5157 5155 5152 5151 5151 5152 5154 5156 5159 5160 5162 5165 5162 5159 5155 5154
5288 5291 5293 5295 5295 5287 5279 5274 5273 5273 5273 5274 5269 5268 5247 5225 5213 5206 5203 5202 5200 5195 5192 5188 5185 5181 5176 5173 5169 5166 5163 5157 5151 5146 5141 5139 5137 5135 5133 5131 5130 5131 5131 5131 5133 5137 5140 5140 5143 5144 5141 5137 5134 5131
5281 5282 5284 5285 5284 5271 5268 5268 5268 5267 5270 5263 5261 5244 5233 5227 5214 5194 5181 5181 5180 5175 5168 5166 5162 5159 5155 5153 5152 5148 5142 5138 5135 5130 5126 5122 5117 5113 5110 5108 5108 5107 5106 5107 5112 5117 5118 5118 5120 5118 5117 5114 5110 5107
5267 5265 5264 5265 5267 5266 5260 5256 5263 5261 5256 5253 5241 5229 5210 5206 5195 5177 5168 5163 5159 5154 5150 5146 5143 5142 5140 5137 5133 5131 5126 5121 5117 5113 5108 5103 5098 5094 5090 5088 5085 5082 5081 5083 5089 5093 5094 5093 5092 5092 5090 5089 5086 5083